CZ-6A DEB, 54994

Orbit data source: Space-Track

CZ-6A DEB, 54994 is space debris in SSO originally from a launch on Fri, 11 Nov 2022 UTC launched from the Taiyaun Space Center, China (TSC). Debris objects in space refer to the collection of defunct objects orbiting the Earth. Examples of debris include non-operational satellites, rocket bodies, and fragments generated from explosions, collisions, or faulty payload assembly.

Loading next visibility...
Identifier
54994, 2022-151UK
Orbit
SSO
Country
Flag of CNCN / PRC
Related business
Manufacturer
SAST
Mission
Spacecraft
Bus & Motor
Unknown
Mass
Unknown
Launch date (UTC)
2022-11-11 (3 years ago)
Launch vehicle
Unknown
Launch site
Taiyaun Space Center, China (TSC)
Object type
Payload
Rocket body
Debris
Shape & HBR
Unknown shape, 0.1 m
Radar Cross Section
Small (<0.1 m²)

Expand to show TLE details & history
Last TLE update: 9 hours ago

TLE from 9 hours ago
0 CZ-6A DEB
1 54994U 22151UK  26130.08649172  .00002964  00000-0  96811-3 0  9990
2 54994  98.8299 179.1203 0008856 187.0738 173.0325 14.39342562180876
Epoch: 2026-05-10T02:04Z
TLE epoch observation values (Epoch: 2026-05-10T02:04:32.884Z)
Latitude
-0.00005°
Longitude
-79.91133°
Altitude
769.885 km
Speed
7.466 km/s
True Right ascension
11h 56m 28s
True Declination
0° 00' 00"
Sunlit
Object was in full shadow at epoch
Visualization orbit readout
Latitude
Unknown
Longitude
Unknown
Altitude
Unknown
Speed
Unknown
Apparent Right ascension
Unknown
Apparent Declination
Unknown
Sunlit
N/A
Visualization observer readout
Local Sidereal Time
18:59:47
Azimuth
Unknown
Elevation
Unknown
Doppler factor
Unknown
Orbital elements
Apogee altitude
764.13 km
Perigee altitude
751.49 km
Semi-major axis
7,135.947 km
Eccentricity
0.00089
Inclination
98.8299°
RAAN
179.1203°
Arg. of periapsis
187.0738°
True anomaly
173.0448°
Mean anomaly
173.0325°
Eccentric anomaly
173.03865°
Mean motion
3.60052 °/min
Orbital period
99.99 mins
BSTAR
0.00096811
Loading maneuver chart data...
Computing Atmospheric mass density...
Loading historical data...
Loading historical data...
Loading historical data...
Loading historical data...
Loading historical data...
Loading historical data...
Loading historical data...

Documentation

Showing up to 5 results
|